Location: Little Baddow
(51.7333°N, 0.5667°E)
Time: 10:27:37
(UTC+00:00)

Cosmos 2016 Rocket - Pass Details

Date: 08 November 2025
Orbit: 946 x 999 km, 83.0° (Epoch: 11 December)

Event Time Altitude Azimuth Distance (km) Brightness Sun altitude
Rises 05:44:12 0° 345° (NNW) 3,734 6.8 -12.6°
Reaches altitude 10° 05:46:52 10° 339° (NNW) 2,781 6.1 -12.2°
Maximum altitude 05:52:46 41° 272° (W) 1,415 4.4 -11.3°
Drops below altitude 10° 05:58:37 10° 204° (SSW) 2,756 6.3 -10.4°
Sets 06:01:16 0° 198° (SSW) 3,695 7.0 -10.0°
